Regional Weather Roundup
Issued by NWS

Home | Current Version | Previous Version | Text Only | Print | Product List | Glossary On
Versions: 1 2 3 4 5 6 7 8 9 10 11 12 13 14 15 16 17 18 19 20 21 22 23 24 25 26 27 28 29 30 31 32 33 34 35 36 37 38 39 40 41 42 43 44 45 46 47 48 49 50
000
ASUS44 KJAN 161910
RWRMS

MISSISSIPPI HOURLY WEATHER ROUNDUP
NATIONAL WEATHER SERVICE JACKSON MS
200 PM CDT TUE SEP 16 2014

NOTE: "FAIR: INDICATES FEW OR NO CLOUDS BELOW 12,000 FEET WITH NO
SIGNIFICANT WEATHER AND/OR OBSTRUCTIONS TO VISIBILITY.

MSZ001>002-007>008-010>013-018>021-025>028-034>036-162000-
NORTHWEST MISSISSIPPI

CITY           SKY/WX    TMP DP  RH WIND       PRES   REMARKS
CLARKSDALE     FAIR      86  70  58 N6        30.07F HX  90
CLEVELAND      MOCLDY    89  67  48 CALM      30.05F HX  92
GREENWOOD      PTSUNNY   88  64  44 CALM      30.05F
GREENVILLE     SUNNY     88  63  43 CALM      30.05F
GRENADA        FAIR      86  64  48 CALM      30.06F
OLIVE BRANCH   CLOUDY    72  72 100 NE6       30.10F
OXFORD         FAIR      82  68  61 N8        30.09S
TUNICA         CLEAR     79  68  69 N7        30.09F
$$

MSZ003>006-009-014>017-022>024-029>033-037>039-162000-
NORTHEAST MISSISSIPPI

CITY           SKY/WX    TMP DP  RH WIND       PRES   REMARKS
COLUMBUS AFB   SUNNY     88  63  43 NW5       30.04F
CORINTH        CLOUDY    81  68  65 NW9       30.07F
GOLDN TRIANGLE MOSUNNY   90  66  45 NE5       30.06F HX  92
STARKVILLE     FAIR      86  64  48 CALM      30.05F
TUPELO         CLOUDY    87  66  49 N3        30.05F
$$

MSZ040-058-162000-
CENTRAL MISSISSIPPI

CITY           SKY/WX    TMP DP  RH WIND       PRES   REMARKS
JACKSON INTL   PTSUNNY   88  61  40 N10       30.05F
JACKSON HAWKNS PTSUNNY   88  65  46 CALM      30.05F HX  90
MERIDIAN KEY   PTSUNNY   89  65  44 NE9       30.03F HX  91
MERIDIAN NAS   PTSUNNY   84  69  60 NE6       30.05F
RAYMOND        FAIR      86  82  89 N5        30.04F HX 105
VICKSBURG      PTSUNNY   87  68  52 N9        30.05F HX  90
$$

MSZ059>079-162000-
SOUTH MISSISSIPPI

CITY           SKY/WX    TMP DP  RH WIND       PRES   REMARKS
BROOKHAVEN     FAIR      88  72  58 CALM      30.05F HX  94
HATTIESBURG    PTSUNNY   91  72  53 VRB3      30.02F HX  98
MCCOMB         MOSUNNY   90  68  48 VRB7      30.02F HX  94
NATCHEZ        PTSUNNY   88  73  62 N6        30.04F HX  96
PINE BELT      PTSUNNY   84  73  70 SW7       30.05F HX  91
$$

MSZ080>082-162000-
COASTAL MISSISSIPPI

CITY           SKY/WX    TMP DP  RH WIND       PRES   REMARKS
BAY ST LOUIS   PTSUNNY   90  73  58 S9        30.00F HX  98
BILOXI         TSTM      84  76  77 SW5       30.01F HX  93
PASCAGOULA     RAIN      83  75  77 S8        30.00F HX  90
GULFPORT       TSTM      78  74  87 NE16      30.02F FOG
$$


USA.gov is the U.S. government's official web portal to all federal, state and local government web resources and services.